[[{"header":{"parameterUnit":"m.s-1","parameterCategory":1,"la1":30.2991,"la2":30.254,"lo1":-89.0895,"lo2":-89.0444,"dy":0.0017,"dx":0.0017,"nx":28,"ny":28,"refTime":"2024-04-09T09:00:00:Z","depth":0,"parameterNumber":2,"parameterNumberName":"U-component_of_WINDS"},"data":[0,0,0,0,0,0,0,0,0,0,0,0,0,0,0,0,0,0,0,0,0,0,0,0,0,0,0,0,0,0,0,0,0,0,0,0,0,0,0,0,0,0,0,0,0,0,0,0,0,0,0,0,0,0,0,0,0,0,-7.4348,-7.4349,0,-7.4504,-7.4506,-7.4508,-7.4468,-7.4465,-7.4462,-7.4459,-7.4616,-7.4622,-7.4629,0,0,0,0,0,0,0,0,0,0,0,0,0,-7.4011,-7.4018,-7.4347,-7.4349,-7.4351,-7.4504,-7.4506,-7.4508,-7.4469,-7.4465,-7.4461,-7.4458,-7.4613,-7.4621,-7.463,0,0,0,0,0,0,0,0,0,0,0,0,0,-7.4162,-7.402,-7.4347,-7.435,-7.4352,-7.4504,-7.4506,-7.4509,-7.447,-7.4465,-7.446,-7.4456,-7.461,-7.4621,-7.4631,-7.4788,0,0,-7.4663,-7.4668,0,0,0,0,0,0,0,0,-7.4153,-7.4174,-7.4348,-7.435,-7.4353,-7.4462,-7.4445,-7.4602,-7.4471,-7.4425,-7.4459,-7.4454,-7.4568,-7.4582,-7.4621,-7.4795,-7.4802,-7.4664,-7.4671,-7.4675,-7.4678,0,0,0,0,0,0,0,-7.4143,-7.4167,-7.4409,-7.435,-7.4353,-7.4343,-7.4359,-7.4475,-7.452,-7.4428,-7.4426,-7.4445,-7.4568,-7.4611,-7.4624,-7.4804,-7.4664,-7.4673,-7.468,-7.4684,-7.5116,-7.5121,0,0,0,0,0,0,-7.4131,-7.4159,-7.4404,-7.4414,-7.424,-7.4353,-7.4371,-7.4432,-7.4519,-7.4528,-7.4449,-7.4443,-7.4595,-7.4612,-7.463,-7.4818,-7.4675,-7.4685,-7.4691,-7.5111,-7.5117,-7.5123,0,0,0,0,0,0,-7.4124,-7.4153,-7.4398,-7.4286,-7.4316,-7.4363,-7.4432,-7.4437,-7.4479,-7.4534,-7.4542,-7.4484,-7.4592,-7.4615,-7.4749,-7.4823,-7.469,-7.4699,-7.5105,-7.5113,-7.512,-7.5197,0,0,0,0,0,0,-7.4114,-7.4151,-7.4211,-7.4288,-7.4322,-7.4516,-7.4436,-7.4443,-7.4498,-7.4492,-7.4569,-7.4578,-7.459,-7.4734,-7.476,-7.4835,-7.4707,-7.5098,-7.5108,-7.5118,-7.5188,-7.5207,-7.5222,0,0,0,0,0,-7.4102,-7.4226,-7.4214,-7.4244,-7.4399,-7.452,-7.454,-7.4553,-7.4505,-7.4565,-7.4601,-7.4575,-7.4812,-7.4748,-7.4777,-7.4856,-7.5094,-7.5106,-7.5117,-7.518,-7.5203,-7.5222,0,0,0,0,0,0,-7.4154,-7.4235,-7.4224,-7.4376,-7.4442,-7.4513,-7.4589,-7.4576,-7.4656,-7.4646,-7.4658,-7.4676,-7.4813,-7.4849,-7.4776,-7.5014,-7.4946,-7.4964,-7.4984,-7.5006,-7.5023,-7.5009,-7.4716,0,0,0,0,0,-7.4184,-7.4276,-7.4342,-7.447,-7.4504,-7.4542,-7.4595,-7.46,-7.4668,-7.4695,-7.474,-7.4806,-7.4895,-7.4953,-7.5039,-7.5195,-7.5211,-7.5265,-7.5282,-7.5295,-7.5309,-7.5394,-7.5418,-7.5161,-7.5161,-7.5161,0,0,-7.4244,-7.43,-7.4357,-7.4482,-7.4533,-7.4628,-7.4565,-7.4667,-7.4737,-7.471,-7.4839,-7.4876,-7.495,-7.5096,-7.5163,-7.513,-7.5385,-7.531,-7.5321,-7.5327,-7.5409,-7.5433,-7.5454,-7.5169,-7.5168,-7.5166,0,0,-7.4402,-7.4455,-7.4567,-7.4621,-7.4701,-7.4726,-7.4753,-7.4829,-7.4852,-7.4983,-7.4964,-7.5048,-7.5202,-7.5256,-7.5303,-7.5487,-7.5466,-7.5515,-7.5602,-7.5685,-7.5705,-7.5723,-7.5786,-7.5809,-7.553,-7.553,-7.553,0,-7.4466,-7.4609,-7.4626,-7.4731,-7.4785,-7.4769,-7.4881,-7.4933,-7.5036,-7.5074,-7.5037,-7.5231,-7.528,-7.5438,-7.5483,-7.5523,-7.5553,-7.5503,-7.5701,-7.572,-7.5736,-7.5797,-7.5821,-7.5535,-7.5534,-7.5534,-7.5533,0,-7.4684,-7.4784,-7.4864,-7.4966,-7.5031,-7.5139,-7.5171,-7.5235,-7.5236,-7.5265,-7.5399,-7.5459,-7.5555,-7.5595,-7.5595,-7.5754,-7.5731,-7.5698,-7.5629,-7.5766,-7.5822,-7.5846,-7.5542,-7.5541,-7.5539,-7.5538,0,0,-7.4873,-7.4986,-7.5015,-7.5061,-7.5151,-7.5227,-7.5336,-7.5433,-7.5486,-7.556,-7.565,-7.5783,-7.5754,-7.5808,-7.5816,-7.5889,-7.6029,-7.5847,-7.5849,-7.5876,-7.6205,-7.6226,-7.6252,-7.6018,-7.6023,-7.6026,-7.6197,0,-7.5036,-7.5227,-7.5247,-7.5418,-7.551,-7.5498,-7.5592,-7.5657,-7.5688,-7.577,-7.5805,-7.5898,-7.5854,-7.5886,-7.5959,-7.5996,-7.6094,-7.5985,-7.6099,-7.6103,-7.6076,-7.6282,-7.6304,-7.6463,-7.622,-7.6224,-7.6227,0,-7.5251,-7.5332,-7.5513,-7.5591,-7.563,-7.5714,-7.5805,-7.5885,-7.5959,-7.5977,-7.604,-7.6039,-7.615,-7.6082,-7.6234,-7.616,-7.6209,-7.6235,-7.6241,-7.6248,-7.6169,-7.6291,-7.6514,-7.6536,-7.6262,-7.6259,-7.6257,0,-7.5367,-7.5522,-7.565,-7.5691,-7.5786,-7.5846,-7.5888,-7.5957,-7.6015,-7.6095,-7.6133,-7.6225,-7.6274,-7.6345,-7.6369,-7.6317,-7.6521,-7.6454,-7.6536,-7.6536,-7.6575,-7.6571,-7.6804,-7.6614,-7.6614,-7.6613,-7.6613,0,-7.5544,-7.5654,-7.5704,-7.5782,-7.5905,-7.5928,-7.6049,-7.6088,-7.6151,-7.6236,-7.6233,-7.6313,-7.6342,-7.6427,-7.6447,-7.6569,-7.6592,-7.6609,-7.6611,-7.6606,-7.6604,-7.6635,-7.6623,-7.662,-7.6618,-7.6617,-7.6616,0,-7.5692,-7.573,-7.5868,-7.5949,-7.5972,-7.6059,-7.6127,-7.6202,-7.6235,-7.6343,-7.6369,-7.642,-7.652,-7.6552,-7.6673,-7.6686,-7.6828,-7.6824,-7.6803,-7.6802,-7.6882,-7.6872,-7.7139,-7.7174,-7.6965,-7.6967,-7.6968,0,-7.58,-7.5885,-7.5976,-7.6034,-7.6079,-7.6172,-7.6231,-7.6259,-7.6321,-7.6413,-7.6477,-7.6577,-7.6657,-7.6818,-7.6864,-7.6957,-7.6952,-7.704,-7.6965,-7.6958,-7.6949,-7.6942,-7.695,-7.7051,-7.7053,-7.7055,-7.7057,0,-7.5988,-7.6004,-7.609,-7.6185,-7.6257,-7.6332,-7.6404,-7.6452,-7.649,-7.656,-7.6663,-7.6726,-7.6851,-7.6949,-7.7044,-7.7087,-7.7078,-7.7081,-7.7104,-7.7097,-7.708,-7.7087,-7.6837,-7.7073,-7.7071,-7.707,-7.7069,-7.7069,-7.6117,-7.6192,-7.6268,-7.6365,-7.6423,-7.6492,-7.6567,-7.6611,-7.6698,-7.6801,-7.6813,-7.6924,-7.6998,-7.7125,-7.7173,-7.726,-7.7235,-7.7269,-7.7277,-7.7284,-7.7289,-7.7071,-7.7278,-7.7277,-7.7277,-7.7276,-7.7276,0,-7.6301,-7.6351,-7.6441,-7.6543,-7.662,-7.661,-7.669,-7.6754,-7.6852,-7.6923,-7.7004,-7.7123,-7.7219,-7.7276,-7.7372,-7.7431,-7.7429,-7.7455,-7.7448,-7.7458,-7.7307,-7.7275,-7.7454,-7.7454,-7.7454,-7.7454,-7.7454,-7.7454,-7.6406,-7.6531,-7.6557,-7.6712,-7.676,-7.687,-7.6917,-7.698,-7.7037,-7.717,-7.7251,-7.7288,-7.7353,-7.7455,-7.7543,-7.7558,-7.7592,-7.7619,-7.763,-7.7487,-7.7468,-7.7451,-7.7421,-7.7628,-7.7628,-7.7774,-7.7775,-7.7776]},{"header":{"parameterUnit":"m.s-1","parameterCategory":1,"la1":30.2991,"la2":30.254,"lo1":-89.0895,"lo2":-89.0444,"dy":0.0017,"dx":0.0017,"nx":28,"ny":28,"refTime":"2024-04-09T09:00:00:Z","depth":0,"parameterNumber":3,"parameterNumberName":"V-component_of_WINDS"},"data":[0,0,0,0,0,0,0,0,0,0,0,0,0,0,0,0,0,0,0,0,0,0,0,0,0,0,0,0,0,0,0,0,0,0,0,0,0,0,0,0,0,0,0,0,0,0,0,0,0,0,0,0,0,0,0,0,0,0,3.5091,3.5091,0,3.5121,3.5121,3.5121,3.5136,3.5136,3.5136,3.5136,3.5162,3.5163,3.5164,0,0,0,0,0,0,0,0,0,0,0,0,0,3.5045,3.5046,3.5091,3.5091,3.5092,3.5121,3.5121,3.5122,3.5136,3.5136,3.5136,3.5136,3.5162,3.5163,3.5164,0,0,0,0,0,0,0,0,0,0,0,0,0,3.5069,3.5046,3.5091,3.5103,3.5104,3.5121,3.5121,3.5122,3.5136,3.5136,3.5136,3.5136,3.5162,3.5163,3.5164,3.517,0,0,3.5167,3.5167,0,0,0,0,0,0,0,0,3.5067,3.507,3.5101,3.5102,3.5104,3.5125,3.5115,3.5138,3.5136,3.5124,3.5136,3.5136,3.515,3.5152,3.5157,3.5171,3.5172,3.5167,3.5168,3.5168,3.5168,0,0,0,0,0,0,0,3.5066,3.5069,3.5103,3.5101,3.5103,3.5106,3.5109,3.5119,3.5136,3.5125,3.5126,3.513,3.515,3.5156,3.5158,3.5172,3.5167,3.5168,3.5169,3.5169,3.5195,3.5195,0,0,0,0,0,0,3.5063,3.5068,3.5102,3.5104,3.5085,3.5107,3.5111,3.5118,3.5136,3.5139,3.513,3.513,3.5154,3.5157,3.5159,3.5168,3.5168,3.5169,3.517,3.5195,3.5195,3.5195,0,0,0,0,0,0,3.5062,3.5065,3.51,3.5086,3.5091,3.5108,3.5116,3.5119,3.5124,3.514,3.5142,3.5132,3.5154,3.5157,3.5168,3.5169,3.517,3.5171,3.5195,3.5195,3.5195,3.5186,0,0,0,0,0,0,3.506,3.5065,3.5068,3.5086,3.5092,3.5109,3.5116,3.5119,3.5126,3.5128,3.5143,3.5146,3.5155,3.5166,3.5169,3.517,3.5171,3.5195,3.5195,3.5195,3.5186,3.5185,3.5185,0,0,0,0,0,3.5058,3.5062,3.5068,3.5072,3.5095,3.5109,3.5112,3.5124,3.5126,3.5129,3.514,3.5145,3.5169,3.5167,3.517,3.5172,3.5195,3.5195,3.5195,3.5186,3.5185,3.5185,0,0,0,0,0,0,3.5041,3.5065,3.5071,3.5081,3.5094,3.5112,3.5115,3.5123,3.5133,3.5134,3.5147,3.515,3.516,3.5167,3.5165,3.518,3.5182,3.5183,3.5174,3.5174,3.5174,3.5171,3.5172,0,0,0,0,0,3.5039,3.505,3.5069,3.5076,3.5082,3.5098,3.5105,3.5113,3.5126,3.513,3.5141,3.5153,3.5163,3.5169,3.5179,3.5188,3.5191,3.5191,3.519,3.519,3.519,3.5197,3.5197,3.5196,3.5196,3.5196,0,0,3.5033,3.5048,3.5053,3.5073,3.5084,3.5094,3.5102,3.5112,3.512,3.5131,3.5143,3.5151,3.5165,3.5175,3.518,3.5181,3.5192,3.519,3.519,3.519,3.5197,3.5197,3.5197,3.5196,3.5196,3.5196,0,0,3.5029,3.5041,3.5049,3.506,3.5077,3.5088,3.509,3.5109,3.5116,3.5128,3.5137,3.5146,3.5163,3.5173,3.518,3.5183,3.5189,3.5186,3.5183,3.519,3.519,3.519,3.5191,3.5192,3.5186,3.5186,3.5186,0,3.5019,3.5036,3.5052,3.5062,3.5071,3.5085,3.5093,3.5103,3.5122,3.5127,3.5129,3.5153,3.5163,3.5176,3.5177,3.5182,3.5185,3.5184,3.5189,3.5189,3.5189,3.5191,3.5191,3.5186,3.5186,3.5186,3.5186,0,3.5025,3.5036,3.5041,3.5061,3.5071,3.508,3.5096,3.5104,3.5113,3.5123,3.5136,3.5149,3.5163,3.5167,3.5174,3.5182,3.5182,3.5186,3.5189,3.5189,3.5191,3.5191,3.5185,3.5185,3.5186,3.5186,0,0,3.5007,3.5039,3.504,3.5051,3.5072,3.5081,3.5091,3.5107,3.5114,3.5127,3.5136,3.5152,3.5157,3.5165,3.5174,3.5179,3.5182,3.5183,3.5183,3.5182,3.5192,3.5189,3.519,3.5187,3.5187,3.5187,3.5191,0,3.5006,3.5027,3.5042,3.5057,3.5069,3.5084,3.5093,3.5107,3.5118,3.5129,3.514,3.5152,3.5157,3.5162,3.5169,3.518,3.5184,3.518,3.5195,3.5195,3.519,3.519,3.5186,3.519,3.5192,3.5192,3.5192,0,3.5006,3.5022,3.5038,3.5061,3.5066,3.5075,3.5092,3.5102,3.5119,3.5126,3.5137,3.5147,3.5159,3.5162,3.5178,3.5175,3.5182,3.5189,3.519,3.5191,3.5193,3.5191,3.5191,3.5191,3.5194,3.5193,3.5193,0,3.4993,3.5018,3.5031,3.504,3.5066,3.5072,3.5083,3.51,3.5109,3.5124,3.513,3.5145,3.5153,3.5164,3.5178,3.5178,3.5193,3.5197,3.52,3.5199,3.5201,3.52,3.5201,3.5206,3.5206,3.5206,3.5206,0,3.499,3.4999,3.5026,3.5034,3.5046,3.5064,3.5075,3.5087,3.5102,3.5113,3.5126,3.5136,3.5154,3.5166,3.5176,3.5189,3.5192,3.5198,3.5201,3.5197,3.5196,3.5201,3.5201,3.5206,3.5206,3.5206,3.5206,0,3.4976,3.4994,3.501,3.5035,3.5042,3.5049,3.5071,3.5079,3.5092,3.5106,3.511,3.513,3.5145,3.516,3.5179,3.5187,3.5199,3.5202,3.5194,3.5195,3.5197,3.5197,3.5201,3.5202,3.5206,3.5206,3.5206,0,3.4972,3.498,3.5007,3.5017,3.5028,3.5042,3.5053,3.5071,3.5082,3.5103,3.5109,3.5125,3.5139,3.5162,3.5178,3.5193,3.5197,3.5198,3.5199,3.5196,3.5197,3.5197,3.5198,3.5196,3.5196,3.5196,3.5196,0,3.4964,3.4973,3.4989,3.5008,3.5021,3.5037,3.5053,3.5059,3.5081,3.5092,3.5108,3.512,3.5141,3.5157,3.5175,3.5185,3.5194,3.5196,3.5198,3.5193,3.5188,3.5191,3.5192,3.5195,3.5195,3.5196,3.5196,3.5196,3.4955,3.4964,3.4985,3.5002,3.5017,3.5033,3.5043,3.5059,3.5073,3.5093,3.5104,3.512,3.5138,3.5164,3.5174,3.5187,3.519,3.5192,3.5192,3.5192,3.5192,3.5187,3.519,3.519,3.5191,3.5191,3.5191,0,3.4948,3.4963,3.4979,3.5003,3.5017,3.5027,3.5046,3.5056,3.5071,3.5088,3.5103,3.5123,3.5139,3.5157,3.5175,3.5182,3.5187,3.5186,3.5185,3.5188,3.5188,3.5185,3.5182,3.5182,3.5182,3.5182,3.5182,3.5182,3.4946,3.4962,3.4974,3.4998,3.5013,3.5031,3.5042,3.5056,3.507,3.5092,3.5107,3.512,3.5137,3.5157,3.5172,3.5177,3.5183,3.5181,3.5187,3.5187,3.5187,3.5188,3.5185,3.5182,3.5182,3.5185,3.5185,3.5185]}]]